[Date Prev][Date Next][Thread Prev][Thread Next] - [Date Index][Thread Index][Author Index]

2 Line ISS Keps 6-9



ISS
1 25544U 98067A   05159.93200825  .00019243  00000-0  14439-3 0  6528
2 25544 051.6459 303.2144 0004509 222.3650 287.9787 15.72628465374386
----
Via the sarex mailing list at AMSAT.ORG courtesy of AMSAT-NA.
To unsubscribe, send "unsubscribe sarex" to Majordomo@amsat.org



AMSAT Top AMSAT Home